Tracking 18945 objects as of 20-Jan-2018
HD Live streaming from Space Station
objects crossing your sky now

FENGYUN 1C DEB

Track FENGYUN 1C DEB now!
10-day predictions


NORAD ID: 33692
Int'l Code: 1999-025DGD
Perigee: 673.4 km
Apogee: 706.7 km
Inclination: 99.1 °
Period: 98.4 minutes
Semi major axis: 7061 km
RCS: 0.0151 m2 (small)
Launch date: May 10, 1999
Source: People's Republic of China (PRC)
Launch site: Taiyaun Space Center, China (TSC)

Note: This is SATELLITE DEBRIS
aabbcc
Your satellite tracking list
Your tracking list is empty




NASA's NSSDC Master Catalog

Two Line Element Set (TLE):
1 33692U 99025DGD 18016.53324137  .00003783  00000-0  74308-3 0  9998
2 33692  99.1233 273.6418 0023604 113.2177   9.4626 14.63178277512652
Source of the keplerian elements: AFSPC